Oakland, CA

1:36 AM PDT on October 22, 2017 (GMT -0700)
Metro Oakland International

Weather History for KOAK - June, 2014

Change the Weather History Date:

Wednesday, June 11, 2014

  Actual Average Record
Temperature  
Mean Temperature 64 °F 62 °F  
Max Temperature 70 °F 70 °F 83 °F (2008)
Min Temperature 58 °F 53 °F 49 °F (1956)
Degree Days  
Heating Degree Days 1 4  
Month to date heating degree days 31 47  
Since 1 June heating degree days 31 47  
Since 1 July heating degree days 2300 2817  
Cooling Degree Days 0 0  
Month to date cooling degree days 8 0  
Year to date cooling degree days 52 16  
Since 1 June cooling degree days 8 0  
Growing Degree Days 13 (Base 50)    
Moisture  
Dew Point 53 °F    
Average Humidity 66    
Maximum Humidity 78    
Minimum Humidity 53    
Precipitation  
Precipitation 0.00 in 0.00 in 0.02 in (1950)
Month to date precipitation 0.00 0.10  
Year to date precipitation 7.98 13.14  
Since 1 July precipitation 10.05  
Sea Level Pressure  
Sea Level Pressure 29.86 in    
Wind  
Wind Speed 12 mph (WSW)    
Max Wind Speed 23 mph    
Max Gust Speed 31 mph    
Visibility 10 miles    
Events      
T = Trace of Precipitation, MM = Missing Value Source: NWS Daily Summary

Daily Weather History Graph

Daily Weather History Graph

Search for Another Location

Airport or City:

Trip Planner

Search our weather history database for the weather conditions in past years. The results will help you decide how hot, cold, wet, or windy it might be!

Date:

Astronomy

Jun. 11, 2014 Rise Set
Actual Time 5:46 AM PDT 8:30 PM PDT
Civil Twilight 5:15 AM PDT 9:01 PM PDT
Nautical Twilight 4:36 AM PDT 9:40 PM PDT
Astronomical Twilight 3:52 AM PDT 10:24 PM PDT
Moon 7:07 PM PDT (6/11) 4:38 AM PDT (6/11)
Length of Visible Light 15h 46m
Length of Day
14h 44m
Waxing Gibbous, 97% of the Moon is Illuminated
Jun 11
Waxing Gibbous
Jun 12
Full
Jun 19
Last Quarter
Jun 27
New
Jul 5
First Quarter

Hourly Weather History & Observations

Time (PDT) Temp. Dew Point Humidity Pressure Visibility Wind Dir Wind Speed Gust Speed Precip Events Conditions
12:34 AM 60.8 °F 53.6 °F 77% 29.83 in 10.0 mi NW 3.5 mph - N/A   Overcast
12:53 AM 60.1 °F 53.1 °F 78% 29.82 in 10.0 mi WNW 4.6 mph - N/A   Overcast
1:10 AM 60.8 °F 53.6 °F 77% 29.82 in 10.0 mi West 4.6 mph - N/A   Overcast
1:46 AM 60.8 °F 53.6 °F 77% 29.82 in 10.0 mi SW 8.1 mph - N/A   Overcast
1:53 AM 61.0 °F 53.1 °F 75% 29.82 in 10.0 mi WSW 9.2 mph - N/A   Overcast
2:40 AM 60.8 °F 53.6 °F 77% 29.83 in 10.0 mi WSW 5.8 mph - N/A   Overcast
2:53 AM 61.0 °F 53.1 °F 75% 29.83 in 10.0 mi SW 9.2 mph - N/A   Mostly Cloudy
3:01 AM 60.8 °F 53.6 °F 77% 29.83 in 10.0 mi SW 9.2 mph - N/A   Mostly Cloudy
3:53 AM 60.1 °F 53.1 °F 78% 29.82 in 10.0 mi SW 15.0 mph - N/A   Overcast
3:58 AM 60.8 °F 53.6 °F 77% 29.82 in 10.0 mi SW 13.8 mph - N/A   Scattered Clouds
4:20 AM 60.8 °F 53.6 °F 77% 29.82 in 10.0 mi SW 17.3 mph - N/A   Mostly Cloudy
4:53 AM 60.1 °F 53.1 °F 78% 29.82 in 10.0 mi SW 15.0 mph - N/A   Mostly Cloudy
5:53 AM 61.0 °F 53.1 °F 75% 29.83 in 10.0 mi SW 11.5 mph - N/A   Overcast
6:53 AM 62.1 °F 52.0 °F 70% 29.84 in 10.0 mi SSW 11.5 mph - N/A   Overcast
7:53 AM 63.0 °F 53.1 °F 70% 29.85 in 10.0 mi SE 8.1 mph - N/A   Mostly Cloudy
8:53 AM 63.0 °F 53.1 °F 70% 29.86 in 10.0 mi WSW 5.8 mph - N/A   Scattered Clouds
9:53 AM 64.9 °F 52.0 °F 63% 29.88 in 10.0 mi SSW 3.5 mph - N/A   Partly Cloudy
10:53 AM 66.0 °F 52.0 °F 60% 29.88 in 10.0 mi WSW 4.6 mph - N/A   Partly Cloudy
11:53 AM 69.1 °F 52.0 °F 54% 29.89 in 10.0 mi WSW 5.8 mph - N/A   Partly Cloudy
12:53 PM 69.1 °F 55.0 °F 61% 29.89 in 10.0 mi NW 15.0 mph - N/A   Partly Cloudy
1:53 PM 68.0 °F 54.0 °F 61% 29.89 in 10.0 mi NW 15.0 mph - N/A   Partly Cloudy
2:53 PM 69.1 °F 54.0 °F 58% 29.88 in 10.0 mi WNW 15.0 mph - N/A   Partly Cloudy
3:53 PM 68.0 °F 54.0 °F 61% 29.87 in 10.0 mi NW 17.3 mph 21.9 mph N/A   Partly Cloudy
4:53 PM 68.0 °F 53.1 °F 59% 29.87 in 10.0 mi WNW 12.7 mph - N/A   Partly Cloudy
5:53 PM 68.0 °F 54.0 °F 61% 29.86 in 10.0 mi West 17.3 mph - N/A   Partly Cloudy
6:53 PM 64.0 °F 53.1 °F 67% 29.86 in 10.0 mi WNW 16.1 mph - N/A   Partly Cloudy
7:53 PM 62.1 °F 52.0 °F 70% 29.88 in 10.0 mi West 15.0 mph - N/A   Partly Cloudy
8:53 PM 59.0 °F 52.0 °F 78% 29.89 in 10.0 mi WNW 9.2 mph - N/A   Mostly Cloudy
9:53 PM 59.0 °F 52.0 °F 78% 29.90 in 10.0 mi West 9.2 mph - N/A   Scattered Clouds
10:51 PM 59.0 °F 51.8 °F 77% 29.91 in 10.0 mi West 13.8 mph - N/A   Mostly Cloudy
10:53 PM 59.0 °F 51.1 °F 75% 29.91 in 10.0 mi West 12.7 mph - N/A   Mostly Cloudy
11:16 PM 57.2 °F 51.8 °F 82% 29.91 in 10.0 mi West 17.3 mph - N/A   Scattered Clouds
11:53 PM 59.0 °F 51.1 °F 75% 29.92 in 10.0 mi West 12.7 mph - N/A   Mostly Cloudy